Torna al catalogo

FENGYUN 1C DEB

AttivoPO
NORAD 30699·DEBRIS·🇨🇳 China

Lanciato May 10, 1999 da Taiyuan Satellite Launch Center

Loading…

Prossimi Passaggi (prossime 24 ore)

TLE

AggiornatoSource: Space-Track

Epoca: Sep 14, 2026, 09:40 UTC

1 30699U 99025ARH 26257.40342653  .00004400  00000-0  11263-2 0  9994
2 30699  99.3295  50.5262 0004005 147.8775 212.2661 14.50959272 16072

Traccia FENGYUN 1C DEB in tempo reale con AllMySat

Download on the App Store